Observations for Trim Market St
| Time | AQI | Temp °C | Hum % | Pres Pa | CO μg/m³ | H₂S μg/m³ | NO μg/m³ | NO₂ μg/m³ | O₃ μg/m³ | SO₂ μg/m³ | PM1 μg/m³ | PM2.5 μg/m³ | PM10 μg/m³ |
|---|---|---|---|---|---|---|---|---|---|---|---|---|---|
| Sunday 23 August 2026 | |||||||||||||
| 15:39 | 2 | 25.5 | 36 | 65,724 | 0.02 | 0 | 0.9 | 12.52 | 73.06 | 0 | 1.43 | 5.22 | 5.74 |
| 15:38 | 2 | 25.5 | 36 | 65,719 | 0.04 | 0 | 0.91 | 13.27 | 73.43 | 0 | 0.71 | 4.14 | 4.55 |
| 15:34 | 2 | 25.3 | 36 | 65,742 | 0.02 | 0 | 1.38 | 14.26 | 73.75 | 0 | 2.14 | 5.19 | 6.7 |
| 15:33 | 2 | 25.2 | 36 | 65,742 | 0.02 | 0 | 1.39 | 13.12 | 73.03 | 0 | 3.56 | 6.25 | 6.7 |
| 15:28 | 2 | 24.9 | 37 | 65,692 | 0 | 0 | 1.35 | 12.88 | 72.39 | 0 | 2.85 | 5.7 | 7.53 |
| 15:26 | 2 | 24.8 | 37 | 65,711 | 0.11 | 0 | 1.26 | 14.34 | 73.02 | 0 | 2.85 | 5.15 | 6.7 |
| 15:19 | 2 | 24.3 | 38 | 65,631 | 0 | 0 | 1.04 | 14.44 | 71.66 | 0 | 1.43 | 4.59 | 5.07 |
| 15:18 | 2 | 24.3 | 38 | 65,637 | 0 | 0 | 1.09 | 15.16 | 71.55 | 0 | 1.43 | 5.12 | 5.63 |
| 15:17 | 2 | 24.2 | 38 | 65,645 | 0 | 0 | 1.1 | 10.58 | 71.21 | 0 | 0.71 | 2.98 | 3.28 |
| 15:16 | 2 | 24.1 | 38 | 65,659 | 0 | 0 | 1.12 | 15.7 | 70.69 | 0 | 1.43 | 4.58 | 5.03 |
| 15:15 | 2 | 24.1 | 38 | 65,676 | 0.01 | 0 | 1.21 | 14.72 | 70.59 | 0 | 1.43 | 5.1 | 5.61 |
| 15:14 | 2 | 24.1 | 38 | 65,645 | 0 | 0 | 1.06 | 10.19 | 77.52 | 0 | 2.14 | 5.64 | 5.89 |
| 15:13 | 2 | 24.1 | 38 | 65,631 | 0.16 | 0 | 1.04 | 10.57 | 95.03 | 0 | 1.43 | 4.04 | 4.45 |
| 15:12 | 2 | 24.1 | 38 | 65,641 | 0 | 0 | 1.01 | 12.32 | 75.09 | 0 | 0.71 | 4.05 | 4.25 |
| 15:11 | 2 | 24 | 38 | 65,627 | 0 | 0 | 1 | 9.16 | 71.12 | 0 | 2.14 | 4.58 | 5.07 |
| 15:10 | 2 | 24 | 38 | 65,611 | 0 | 0 | 0.96 | 9.84 | 80.24 | 0 | 1.43 | 4.04 | 4.45 |
| 15:09 | 2 | 24 | 38 | 65,621 | 0 | 0 | 0.97 | 10.47 | 75.65 | 0 | 1.43 | 5.11 | 5.62 |
| 15:08 | 2 | 24 | 38 | 65,631 | 0 | 0 | 0.98 | 10.62 | 70.74 | 0 | 1.43 | 4.04 | 4.44 |
| 15:07 | 2 | 24 | 38 | 65,643 | 0 | 0 | 0.96 | 12.55 | 74.46 | 0 | 0.71 | 4.04 | 4.25 |
| 15:06 | 2 | 24 | 38 | 65,659 | 0 | 0 | 0.98 | 10.01 | 70.93 | 0 | 2.85 | 5.11 | 5.62 |